Hourly Weather Roundup
Issued by NWS Central Illinois

Home | Current Version | Previous Version | Text Only | Print | Product List | Glossary On
Versions: 1 2 3 4 5 6 7 8 9 10 11 12 13 14 15 16 17 18 19 20 21 22 23 24 25 26 27 28 29 30 31 32 33 34 35 36 37 38 39 40 41 42 43 44 45 46 47 48 49 50
000
NZUS43 KILX 041210
HWRILX

AREA WEATHER ROUNDUP
NATIONAL WEATHER SERVICE, LINCOLN IL
700 AM CDT MON MAY 04 2015


CITY           SKY/WX    TMP DP  RH WIND       PRES   REMARKS
BLOOMINGTON    LGT RAIN  60  59  97 CALM      30.09R
6HR MIN TEMP:  59; 6HR MAX TEMP:  69; 6HR PCP:  0.55;

CHAMPAIGN      LGT RAIN  60  54  80 W6        30.09R
6HR MIN TEMP:  60; 6HR MAX TEMP:  65; 6HR PCP:  0.05;

DANVILLE       CLOUDY    62  52  69 NW8       30.07R
6HR MIN TEMP:  61; 6HR MAX TEMP:  65;

DECATUR        LGT RAIN  62  56  80 SW9       30.08R
6HR MIN TEMP:  62; 6HR MAX TEMP:  69; 6HR PCP:  0.11;

EFFINGHAM      CLOUDY    63  47  56 S6        30.11R
FLORA          CLOUDY    64  50  60 S7        30.11R
6HR MIN TEMP:  60; 6HR MAX TEMP:  64;

GALESBURG      CLOUDY    59  58  96 E3        30.05R
JACKSONVILLE   LGT RAIN  67  60  77 N3        30.07R
6HR MIN TEMP:  67; 6HR MAX TEMP:  73; 6HR PCP:  0.01;

LACON          CLOUDY    59  57  93 S7        30.04R
6HR MIN TEMP:  59; 6HR MAX TEMP:  69; 6HR PCP:  0.30;

LAWRENCEVILLE  CLOUDY    63  52  67 S6        30.11R
6HR MIN TEMP:  54; 6HR MAX TEMP:  63;

LITCHFIELD     CLOUDY    60  54  79 S6        30.09R
$$


CITY           SKY/WX    TMP DP  RH WIND       PRES   REMARKS
LINCOLN        CLOUDY    63  58  83 CALM      30.05R
6HR MIN TEMP:  62; 6HR MAX TEMP:  68; 6HR PCP:  0.04;

MACOMB         TSTM      59  59  99 SE9       30.06S
MATTOON        LGT RAIN  64  50  60 SW9       30.07R
6HR MIN TEMP:  61; 6HR MAX TEMP:  65; 6HR PCP: TRACE;

MT CARMEL AP   CLOUDY    66  46  48 SW6       30.11R
OLNEY-NOBLE AP CLOUDY    63  50  63 S3        30.11R
PARIS          CLOUDY    66  51  57 SW18      30.08R
6HR MIN TEMP:  59; 6HR MAX TEMP:  66;

PEORIA         RAIN      62  58  86 SE6       30.06R FOG
6HR MIN TEMP:  62; 6HR MAX TEMP:  71; 6HR PCP:  0.64;

PONTIAC        RAIN      61  59  95 SE9       30.05F
RANTOUL        NOT AVBL
ROBINSON       CLOUDY    62  51  67 S8        30.11R
6HR MIN TEMP:  57; 6HR MAX TEMP:  62;

SPRINGFIELD    LGT RAIN  66  55  67 CALM      30.08R
6HR MIN TEMP:  65; 6HR MAX TEMP:  71; 6HR PCP: TRACE;

TAYLORVILLE    CLOUDY    61  54  77 S12       30.08R
$$

...REGIONAL REPORTS...


CITY           SKY/WX    TMP DP  RH WIND       PRES   REMARKS
CHICAGO O`HARE CLOUDY    59  55  87 S3        29.98R
KANKAKEE       RAIN      60  58  93 S7        30.07R
MOLINE         CLOUDY    61  57  87 S8        29.99F
MOUNT VERNON   CLOUDY   N/A N/A N/A S6        30.12R
PITTSFIELD     CLOUDY    69  56  64 SW3       30.06R
QUINCY         CLOUDY    65  56  72 SE5       30.03R
ROCKFORD       CLOUDY    60  55  83 W5        30.00R
$$


CITY           SKY/WX    TMP DP  RH WIND       PRES   REMARKS
BURLINGTON     CLOUDY    61  59  93 E7        30.01S
CEDAR RAPIDS   CLOUDY    59  57  93 S12       29.98
DES MOINES     CLOUDY    62  55  77 N12       29.98R
KIRKSVILLE     CLOUDY    64  59  83 S9        29.99R
OTTUMWA        CLOUDY    61  59  93 E13       29.94F
ST LOUIS       LGT RAIN  69  57  65 SW7       30.08R
$$


CITY           SKY/WX    TMP DP  RH WIND       PRES   REMARKS
TERRE HAUTE    CLOUDY    63  50  62 S10       30.10R
EVANSVILLE     PTSUNNY   64  50  60 SW7       30.14R
INDIANAPOLIS   PTSUNNY   63  50  62 SW9       30.09R
LAFAYETTE      CLOUDY    62  50  64 W8        30.08R
MADISON        CLOUDY    58  55  90 NW5       30.01R
MILWAUKEE      CLOUDY    60  55  83 NW9       29.97R
$$





USA.gov is the U.S. government's official web portal to all federal, state and local government web resources and services.